sat.trackr.live / text

‹ back to catalog

STARLINK-31024

NORAD 58786 · 2024-011X

PAYLOAD ACTIVE UNKNOWN

§ Identity

Operator
Country
US
Launch date
2024-01-14
Launch site
AFWTR
Launch vehicle
Mass (kg)
RCS (m²)

Purposes: comms

External: N2YO · Heavens-Above · Gunter

§ Orbital elements

Epoch: 2026-09-20T11:50:19.550976Z

Period
93.85 min
Inclination
53.1598°
Eccentricity
0.0001472
Mean motion
15.34383220 rev/d
Perigee alt
461.7 km
Apogee alt
463.8 km
Semi-major
6,840.9 km
B*
2.1651e-6
RAAN
185.4360°
Arg perigee
93.0043°
Mean anomaly
267.1128°
Rev number
15,014

§ Raw data

STARLINK-310241 58786U 24011X   26263.49328184 -.00000303  00000+0  21651-5 0  99962 58786  53.1598 185.4360 0001472  93.0043 267.1128 15.34383220150146

JSON: /api/v1/satellites/58786 · /tle

For live sub-satellite position, see the globe view (requires WebGL).

§ Visibility from observer

Set your observer location to see the next 7 days of passes ≥ 10°. The values pass through the URL so the page stays shareable.

No JS? Fill the form by hand. The geolocation button needs JavaScript.